User: anonymous   Login
Location: Unspecified
(0.0000°N, 0.0000°E)
Time: 21:53:09
(UTC+00:00)
Language:

OBJECT BV - Orbit

View from above orbital plane
View from above orbital plane
View from above satellite
View from above satellite

Ground track
Ground track

The orbit data is extracted from the following two-line orbital elements,

1 42015U 17008BV  17082.74849857 +.00001315 +00000-0 +59842-4 0  9990
2 42015 097.5048 144.3423 0007724 146.5970 213.5812 15.22495774005351
Epoch (UTC): 23 March 2017 17:57:50
Eccentricity: 0.0007724
inclination: 97.5048°
perigee height: 493 km
apogee height: 503 km
right ascension of ascending node: 144.3423°
argument of perigee: 146.5970°
revolutions per day: 15.22495774
mean anomaly at epoch: 213.5812°
orbit number at epoch: 535

The dashed part of the orbit path shows where the satellite is in the earth's shadow,  

DLR